GFSFLT2_500_rhum_003.txt.gz
RH
6 3 3 5 6 8 9 7 6 5 5 5 4 12 84 99 88 90 75 99 100 100 100 100 100 99 98
3 5 7 7 6 8 6 6 6 6 6 6 4 4 33 99 100 93 98 85 95 99 100 100 100 100 97
6 6 7 7 7 7 10 8 7 7 8 8 7 3 7 77 100 100 100 98 89 98 96 96 96 97 95
7 7 8 8 11 14 9 16 9 8 12 12 10 6 4 36 94 86 86 89 84 94 98 96 91 98 96
7 8 10 10 12 16 15 5 7 13 18 15 18 10 5 7 72 80 68 71 62 72 70 49 68 62 67
8 10 11 11 22 9 6 8 8 24 21 20 28 15 8 3 35 74 50 40 25 21 16 15 17 19 20
20 14 11 25 10 9 10 10 10 15 12 13 15 13 9 5 11 59 58 36 25 25 20 18 24 31 34
18 15 23 13 14 16 11 10 26 38 31 76 88 66 16 5 4 16 46 51 40 29 24 24 26 28 34
18 22 14 20 23 14 13 13 53 79 100 100 100 87 50 24 7 4 3 4 4 3 3 4 9 15 16
19 17 25 25 27 16 8 14 75 99 100 100 100 100 100 73 28 18 10 5 3 2 2 0 0 5 11
23 33 49 69 59 41 24 10 60 73 96 88 100 100 100 98 100 86 14 5 2 0 0 0 3 8 12
84 82 88 96 85 77 79 56 30 63 68 68 86 87 98 96 94 100 26 16 8 1 0 0 6 20 60
100 100 100 100 97 91 100 99 100 100 99 95 81 94 67 77 50 100 64 27 8 9 14 46 67 83 99
98 100 89 99 85 98 100 100 100 100 100 100 100 100 100 100 42 90 100 32 20 25 50 96 97 92 76
100 100 100 100 100 100 100 100 100 100 100 100 100 77 86 99 54 68 79 49 31 32 92 93 85 76 69
100 100 100 100 100 100 100 100 100 100 100 100 100 94 100 100 71 82 73 51 30 26 64 86 90 82 86
100 100 100 100 100 100 100 100 100 100 100 100 100 100 100 93 82 100 100 99 46 26 26 34 45 100 100

GFSFLT2_500_rhum_006.txt.gz
RH
8 6 8 13 9 5 5 5 6 7 8 7 6 6 6 6 5 5 5 3 8 7 11 78 99 100 96
11 16 17 7 6 7 8 7 7 8 8 8 10 10 10 6 6 6 6 5 7 12 20 34 68 100 100
20 20 8 12 11 9 8 8 10 10 10 12 9 8 10 12 10 7 7 6 5 18 21 67 77 59 96
25 9 11 17 20 23 13 13 11 13 10 6 7 7 6 6 7 8 8 7 5 23 48 77 100 80 71
10 14 20 22 28 27 12 11 11 13 13 10 10 9 12 14 15 14 11 9 5 18 50 100 100 100 86
16 25 24 24 28 16 14 10 16 28 12 10 13 13 14 17 21 24 18 11 5 9 48 89 100 100 100
27 27 27 21 16 13 18 24 18 17 11 18 28 37 50 65 57 29 17 9 5 10 50 87 96 99 99
31 29 26 14 14 19 30 29 16 15 21 71 92 100 100 100 100 84 13 6 4 13 62 76 79 85 88
26 20 14 26 41 39 44 25 18 21 53 81 100 100 100 100 100 80 28 5 2 17 67 68 60 70 67
21 47 67 79 83 79 71 35 13 23 47 73 98 95 100 100 100 100 58 9 3 19 60 59 40 25 21
97 99 100 96 87 94 99 98 51 23 35 52 93 100 86 95 100 100 87 23 8 5 21 44 46 31 24
100 100 95 97 92 96 100 100 100 100 88 68 83 89 100 96 82 100 100 16 10 6 4 3 3 4 13
100 100 96 95 100 100 100 99 97 100 100 100 100 91 82 69 74 100 91 85 80 92 5 1 1 1 0
100 100 100 100 100 100 100 100 100 100 100 100 100 99 100 95 82 100 100 99 100 88 4 2 4 5 5
100 100 100 100 100 100 100 100 100 100 100 100 71 84 90 91 58 100 99 37 50 32 8 24 55 75 57
100 100 100 100 100 100 99 100 100 100 100 100 92 99 100 40 46 100 78 49 60 86 94 90 92 100 100
100 100 100 100 100 100 100 100 100 100 100 95 100 100 83 68 73 77 45 47 100 100 100 100 100 100 100

GFSFLT2_500_rhum_009.txt.gz
RH
5 4 4 5 10 18 24 22 12 9 13 17 15 8 7 7 7 8 7 6 6 6 6 5 2 3 5
5 8 16 24 25 25 19 8 14 19 20 22 26 22 13 10 10 9 8 6 6 6 8 8 6 2 4
18 24 24 26 22 16 6 18 22 23 24 30 26 14 14 12 11 9 7 7 6 6 6 6 7 6 2
29 28 25 21 11 7 16 22 26 21 17 18 16 14 12 10 10 9 8 7 6 7 8 7 6 6 4
30 26 20 8 10 21 16 17 17 14 12 21 18 18 17 11 8 8 9 10 8 7 7 11 7 6 6
32 18 7 18 19 11 11 15 32 50 20 29 12 15 13 19 17 20 16 13 14 15 11 6 8 8 6
12 8 21 17 13 21 35 48 64 60 23 15 12 14 28 84 90 95 88 71 73 34 19 12 8 6 5
14 24 17 35 65 60 55 65 90 85 23 9 20 47 78 99 100 98 91 100 100 84 16 10 7 6 6
26 30 85 85 77 75 78 84 100 100 46 16 44 83 85 100 99 99 98 100 100 42 8 8 8 6 6
70 100 99 97 98 92 81 82 91 99 70 37 47 70 99 100 95 99 100 98 88 30 6 4 4 5 25
100 100 100 100 100 100 89 96 99 100 95 80 53 63 79 94 97 99 100 59 70 15 4 4 6 25 81
99 99 100 100 100 99 100 100 100 100 100 96 91 86 95 99 93 91 95 52 35 18 6 13 37 68 77
100 100 100 100 100 100 100 98 98 100 100 100 100 100 100 90 76 100 100 95 94 94 20 7 28 50 61
100 100 100 100 100 100 100 100 100 100 100 98 95 98 100 86 91 100 100 100 100 100 31 3 3 6 30
100 100 100 100 100 100 100 100 100 100 100 98 100 97 97 82 99 98 90 94 100 21 8 14 13 6 4
100 100 100 100 100 100 100 100 100 100 100 100 100 92 34 90 99 66 64 100 98 16 21 95 47 33 22
98 100 100 100 100 100 100 100 100 100 100 100 80 63 43 94 88 61 100 100 100 100 69 91 62 27 43

GFSFLT2_500_rhum_012.txt.gz
RH
7 7 5 3 3 5 11 18 23 26 26 22 16 11 8 10 11 13 12 12 11 7 6 6 5 4 4
6 4 5 8 12 17 24 27 25 21 13 7 11 19 19 19 18 14 11 13 16 14 7 7 6 6 5
4 8 12 14 20 22 24 18 13 7 17 19 13 10 14 16 10 9 12 14 14 12 12 9 9 8 7
16 17 18 18 21 19 11 6 14 19 12 11 10 11 11 10 11 12 12 13 13 11 9 9 10 10 8
10 9 10 13 13 9 6 16 21 40 31 60 25 23 17 13 6 7 8 10 10 9 8 8 8 7 7
12 10 9 9 8 14 22 56 83 100 71 98 48 46 30 10 9 14 33 50 52 62 43 11 9 8 7
11 10 10 20 24 77 85 87 92 100 54 46 79 73 24 15 24 59 70 94 97 81 98 99 53 12 8
25 28 29 69 86 84 87 78 84 87 40 58 66 34 22 35 53 76 98 100 100 100 88 100 89 37 13
35 78 95 99 97 88 84 82 91 100 75 83 95 62 38 60 62 80 100 100 100 100 99 84 90 43 17
100 100 100 100 100 94 90 94 100 100 95 100 100 78 56 65 65 77 100 100 100 62 27 13 11 9 11
100 100 100 100 100 99 98 96 98 100 98 97 100 100 92 83 88 88 100 82 79 93 32 14 10 9 9
99 100 100 100 100 100 100 97 87 90 100 100 100 96 100 100 100 100 99 99 100 100 82 19 12 7 7
100 100 100 100 100 100 100 100 98 98 100 100 100 89 100 98 82 83 100 100 100 100 86 28 36 32 17
100 99 100 100 100 100 100 100 100 100 100 100 100 100 85 93 92 100 93 97 96 78 21 20 35 68 90
100 100 100 100 100 100 100 100 100 100 100 100 62 83 100 100 77 87 100 92 38 56 40 10 17 50 83
100 100 100 100 100 100 100 100 100 100 100 92 42 76 80 55 68 99 90 90 100 100 95 60 59 21 59
59 65 94 95 97 99 100 100 100 100 100 99 61 78 64 88 100 100 100 85 100 100 89 64 97 42 28

GFSFLT2_500_rhum_015.txt.gz
RH
9 9 9 7 5 3 3 5 7 11 15 19 21 21 19 17 12 9 6 6 6 6 6 7 8 8 8
9 6 4 3 4 5 6 7 8 9 11 17 21 20 14 6 6 10 11 11 11 11 13 16 20 20 17
4 4 4 5 6 6 8 10 10 10 10 9 10 7 12 10 9 9 10 10 10 10 11 13 12 12 12
6 5 8 7 7 8 7 9 9 13 16 23 23 29 26 19 25 30 16 10 10 8 10 11 10 9 10
8 8 8 13 20 24 27 34 50 86 82 99 72 64 60 47 46 39 17 10 6 6 6 7 8 9 10
9 14 17 38 72 87 96 100 100 100 68 86 69 58 68 68 73 37 19 10 23 53 71 67 71 58 21
13 28 64 82 89 98 100 100 100 99 62 95 87 83 76 87 64 36 25 49 66 76 78 99 100 98 73
46 71 80 81 87 98 94 100 100 97 81 100 96 100 100 100 58 42 58 78 95 89 87 89 100 99 100
78 82 90 93 92 93 94 95 100 99 87 97 97 89 100 99 71 56 62 79 76 100 99 100 76 46 60
95 98 96 98 92 89 88 87 93 100 96 96 96 83 99 88 80 70 83 87 100 96 100 81 66 39 16
95 99 98 98 100 97 97 89 85 100 89 90 96 95 91 100 98 87 100 89 97 100 100 100 100 96 52
94 96 100 100 100 100 96 99 94 99 100 97 85 92 100 94 95 87 85 98 100 98 100 99 74 100 44
100 100 98 94 100 100 100 100 99 98 100 99 64 78 88 86 86 84 93 100 93 76 61 44 44 72 16
97 95 94 96 100 100 100 100 100 96 85 55 92 92 95 83 98 100 92 100 100 94 20 42 60 12 8
61 57 70 89 92 100 100 100 94 98 73 48 87 61 70 83 99 97 100 99 90 100 95 37 93 28 7
17 16 19 22 64 96 100 100 97 98 84 59 88 71 92 100 100 100 100 78 86 100 88 34 82 100 73
18 17 19 25 24 50 87 99 97 98 97 84 78 75 99 97 98 100 100 96 93 100 100 91 47 90 96

GFSFLT2_500_rhum_018.txt.gz
RH
17 14 10 10 10 7 5 4 5 6 6 5 4 4 5 6 8 8 8 8 10 12 14 15 15 14 12
7 7 7 6 4 5 5 7 11 18 18 13 10 7 7 8 8 8 8 8 8 9 7 7 8 8 7
6 4 4 5 5 7 11 32 50 64 54 63 65 50 36 25 18 17 16 15 15 20 18 12 9 8 8
4 5 5 6 8 28 57 68 71 68 56 72 67 66 70 66 62 59 48 42 46 42 31 14 6 4 5
6 6 7 17 55 69 75 77 98 63 67 96 70 83 80 64 59 57 59 58 56 49 30 12 8 6 4
6 9 43 57 67 74 81 90 91 92 79 100 77 89 82 93 90 85 85 69 44 29 18 11 14 28 27
31 57 59 66 77 84 88 94 90 80 68 100 89 98 95 100 97 86 97 68 38 39 56 84 88 86 79
64 64 69 74 75 75 77 89 99 85 62 95 82 87 94 76 80 94 99 58 54 69 89 86 80 86 96
68 72 80 84 82 77 80 81 90 100 83 99 95 97 99 95 91 100 75 66 76 80 91 98 98 99 93
87 91 91 93 86 78 79 80 76 98 100 100 81 30 87 93 100 100 88 84 81 86 95 100 100 100 100
88 93 92 89 91 89 86 81 74 100 90 52 37 64 78 82 91 84 77 86 95 99 100 100 100 100 100
85 85 86 88 95 97 94 95 79 91 80 27 55 65 71 88 98 98 95 89 97 100 100 80 63 53 80
64 45 40 42 52 82 92 93 87 92 74 33 46 50 66 76 93 91 98 100 100 98 92 26 45 78 99
21 17 15 15 16 17 68 99 99 96 80 45 45 71 85 88 92 100 100 100 100 100 87 53 91 100 33
31 27 21 17 16 18 20 76 98 100 92 53 49 76 88 86 99 100 100 100 95 100 72 78 66 15 9
39 39 34 20 21 24 22 34 79 97 96 80 50 76 85 94 100 100 95 100 100 100 100 84 59 8 8
46 50 45 29 25 30 31 30 36 94 98 99 57 63 84 82 95 97 98 100 96 100 45 92 54 32 15

GFSFLT2_500_rhum_021.txt.gz
RH
10 8 7 7 6 4 3 3 4 5 5 6 9 18 28 34 45 51 52 31 9 6 6 6 7 9 8
10 9 6 4 3 4 4 6 7 15 37 46 43 50 55 59 50 41 45 52 39 15 8 9 12 12 12
8 6 3 4 4 5 14 44 55 55 58 57 63 60 68 57 55 56 51 44 52 63 60 26 12 11 12
6 3 5 5 19 42 47 60 68 66 72 81 72 70 61 53 59 68 72 68 53 50 57 60 57 47 35
3 6 6 36 52 54 56 70 82 61 69 94 76 82 78 75 67 66 74 80 81 71 74 64 63 65 66
6 5 41 53 53 59 69 74 83 82 66 100 77 91 72 73 68 78 81 89 98 100 99 65 43 35 43
6 50 58 60 65 75 83 80 80 79 66 94 72 88 56 44 21 25 88 75 89 93 91 50 37 36 37
58 63 64 63 66 69 73 83 86 84 61 80 68 36 14 23 41 75 100 96 96 76 61 59 68 73 70
63 58 62 66 65 70 75 77 80 92 75 83 54 42 30 56 94 100 100 99 90 85 87 83 73 83 78
83 77 71 69 64 59 59 67 72 94 85 91 30 15 62 58 83 94 85 80 84 92 100 100 98 88 88
85 80 76 58 41 27 27 32 53 84 77 84 27 23 54 74 92 92 89 90 100 98 97 100 96 92 97
52 35 25 22 19 16 14 14 14 56 94 87 31 38 64 92 93 100 97 99 95 100 100 100 88 57 59
31 32 31 29 26 22 15 15 14 25 87 91 45 49 62 57 89 81 67 99 100 100 100 90 73 98 100
29 29 28 31 33 29 20 19 23 38 74 100 78 44 74 86 95 87 93 98 100 100 100 98 100 96 32
46 53 58 49 46 36 23 23 24 37 81 97 92 39 69 85 100 96 98 100 100 84 91 100 83 32 9
50 63 65 58 52 39 30 29 31 33 54 100 100 61 67 90 99 100 100 100 100 100 100 100 88 39 8
43 54 57 49 44 40 40 40 38 31 38 99 98 90 77 100 100 100 100 100 98 90 100 98 76 56 26

GFSFLT2_500_rhum_027.txt.gz
RH
42 30 16 12 10 9 9 8 8 7 5 3 3 3 9 24 29 39 41 46 50 52 54 54 52 52 47
22 15 13 12 10 9 8 7 5 3 4 5 15 35 36 37 49 50 56 57 56 48 46 46 45 42 39
15 13 9 7 6 6 6 3 4 6 17 54 44 50 48 58 56 60 61 56 57 53 50 44 37 44 40
10 6 6 6 5 3 3 5 7 45 55 62 60 60 68 63 63 60 59 54 42 19 10 14 17 15 14
6 6 6 4 3 4 6 13 51 69 50 75 59 73 73 63 60 67 65 49 16 23 17 26 49 64 48
7 4 3 4 5 15 47 57 58 100 62 68 69 80 75 71 66 75 69 20 29 29 43 50 55 83 94
3 3 5 13 45 53 60 62 74 73 58 56 58 51 59 71 67 79 45 32 42 56 67 72 79 81 67
4 9 36 56 49 42 37 28 24 29 44 46 32 23 22 30 51 77 32 41 50 66 69 76 100 97 85
28 48 36 24 23 20 22 21 24 35 30 19 20 19 16 21 33 70 34 47 59 74 74 75 87 91 87
32 22 19 17 17 18 18 18 18 19 26 23 28 19 17 44 52 69 38 49 64 82 80 84 86 85 86
18 22 36 40 35 24 26 27 29 35 32 17 27 26 16 18 99 77 47 58 75 94 98 100 100 100 80
27 35 37 38 40 42 34 40 42 43 54 37 30 26 19 24 82 100 68 65 84 92 92 99 98 91 100
25 29 32 33 36 50 46 37 45 47 44 42 30 23 21 26 88 87 55 91 100 97 87 93 92 98 100
26 27 29 34 43 53 76 53 52 63 51 35 32 22 24 45 90 63 67 75 84 73 85 100 92 100 100
41 45 51 58 76 82 82 73 67 62 60 55 42 29 24 70 83 80 76 78 80 78 82 99 100 96 90
40 45 50 58 67 81 80 72 69 63 50 43 32 31 35 80 50 78 83 84 90 89 79 95 100 97 100
35 45 54 74 71 69 77 76 74 57 52 41 28 38 100 100 72 64 86 94 95 79 91 94 100 100 100

GFSFLT2_500_rhum_030.txt.gz
RH
43 35 26 18 11 8 8 9 7 6 5 4 3 3 2 3 4 10 30 38 39 42 55 60 52 48 46
27 19 13 9 9 8 7 6 5 4 3 3 3 3 5 11 36 44 47 46 60 67 60 58 58 53 49
17 12 10 8 7 7 5 4 3 3 3 5 11 10 44 44 52 55 59 68 70 67 63 61 60 52 28
9 8 7 7 5 4 4 3 3 12 32 43 54 50 55 52 54 57 67 74 74 65 63 56 33 23 22
8 8 6 5 4 3 3 9 41 58 57 57 61 63 69 59 56 58 62 73 69 65 64 40 26 24 33
7 6 5 4 3 8 28 37 36 32 32 29 29 32 51 58 56 52 50 55 68 67 69 30 29 42 50
6 5 3 5 21 25 17 12 14 15 12 14 19 24 25 30 43 47 42 32 36 60 68 33 36 53 62
4 4 10 24 14 13 16 20 25 26 18 10 14 18 24 30 24 25 29 23 21 47 60 36 38 59 65
4 19 19 14 18 22 26 28 29 36 33 18 31 24 26 35 30 22 16 16 19 53 58 39 44 63 72
28 16 16 21 24 26 27 27 29 35 43 25 30 35 32 58 48 27 19 15 17 59 63 40 50 58 69
15 17 22 26 27 31 34 38 40 40 54 38 32 37 40 42 54 36 23 16 16 55 64 43 58 74 73
20 23 25 30 40 43 48 47 56 47 64 57 42 39 32 34 34 42 26 19 43 81 55 61 93 96 95
29 28 32 34 35 34 45 46 62 76 76 55 39 38 33 26 25 38 44 84 82 65 60 91 97 94 98
28 33 29 25 29 32 40 50 64 80 83 61 53 42 30 25 26 55 99 100 81 82 89 100 100 82 57
30 23 25 30 40 49 55 60 60 60 71 70 57 47 30 23 65 100 91 88 85 79 80 81 70 48 57
26 26 30 41 59 81 78 66 55 58 55 47 42 36 37 66 66 89 94 84 87 80 67 59 59 67 96
27 30 38 58 67 78 85 77 63 47 40 33 31 49 100 100 72 63 86 99 92 80 62 61 55 76 100

GFSFLT2_500_rhum_033.txt.gz
RH
60 61 47 35 25 19 15 14 13 10 9 9 9 7 4 3 3 3 3 4 4 6 20 36 42 41 35
57 44 32 25 22 18 14 11 10 9 9 9 5 3 3 5 11 12 8 16 40 47 63 62 58 53 54
41 29 24 20 16 12 11 9 9 8 5 3 5 13 26 32 31 37 45 45 44 57 69 72 72 72 73
28 23 18 12 8 8 10 9 5 4 6 13 23 24 24 27 32 38 39 38 43 59 68 74 70 71 73
23 13 8 8 9 11 7 4 4 14 17 13 12 14 16 12 12 19 27 31 36 50 60 62 69 70 71
11 9 8 9 9 5 4 5 17 16 15 20 22 24 26 20 15 12 13 21 23 40 52 50 46 62 67
9 8 8 6 5 4 12 16 17 24 26 24 28 28 33 28 21 19 15 12 18 21 40 43 35 32 53
7 7 7 4 5 15 15 18 26 28 29 14 30 34 37 39 28 26 23 16 13 20 23 26 27 24 37
8 6 4 9 17 16 22 22 20 22 35 16 30 37 37 52 43 40 31 30 20 14 23 21 17 18 30
5 5 17 18 23 25 20 18 17 16 27 16 30 38 34 57 66 56 48 50 33 20 21 23 18 19 55
8 24 20 30 29 27 26 19 18 20 25 23 33 39 44 32 63 58 58 54 39 28 20 20 19 31 60
22 24 30 29 33 27 24 24 29 30 33 37 33 43 53 44 38 57 50 41 35 27 20 16 35 68 53
30 31 30 31 27 26 29 34 51 66 57 42 37 47 51 37 31 38 33 38 28 21 32 82 71 51 58
32 33 30 28 31 34 41 50 60 83 81 48 48 47 40 37 27 31 35 34 37 75 81 79 80 77 67
32 31 30 33 41 50 58 60 57 61 75 54 42 36 33 32 77 90 100 98 94 100 93 98 100 85 64
33 31 32 41 53 71 79 69 59 71 50 39 41 36 50 79 90 100 98 96 96 91 81 84 100 80 61
33 35 43 51 52 65 73 65 58 59 44 37 39 94 100 100 85 58 74 96 95 89 70 67 64 76 79

GFSFLT2_500_rhum_036.txt.gz
RH
79 79 68 64 68 59 48 38 29 23 20 17 13 11 12 13 9 5 4 3 3 3 4 6 7 6 6
80 66 69 67 54 45 34 28 23 17 12 10 12 14 9 4 4 3 3 7 12 16 17 15 28 30 30
70 74 62 49 37 30 25 19 12 10 11 12 12 6 5 4 5 11 11 10 9 11 24 33 41 42 40
74 54 40 33 28 22 14 11 13 10 9 8 6 5 7 10 12 13 14 13 12 11 10 17 33 46 47
42 32 26 21 15 14 14 13 9 7 6 5 5 10 14 17 20 20 19 16 15 18 16 11 17 31 54
28 26 19 17 16 13 9 8 7 5 5 11 16 17 23 24 24 22 19 16 20 22 21 14 11 21 35
21 18 12 9 8 8 8 5 4 14 18 16 21 23 23 22 25 21 18 21 24 29 26 18 16 17 23
12 10 8 8 7 5 3 6 19 19 24 17 19 20 17 18 25 22 27 29 31 31 26 20 22 23 23
10 9 8 5 3 4 16 20 22 23 33 18 18 18 18 22 27 40 48 47 42 36 24 26 36 31 24
9 6 4 5 13 21 21 21 23 24 30 24 24 24 21 28 47 78 81 72 53 31 25 28 44 36 27
4 5 10 25 25 31 29 27 28 28 29 25 23 25 27 35 44 78 72 70 53 44 28 24 30 36 33
7 22 25 34 37 34 32 30 31 33 35 36 29 32 48 41 38 62 66 53 46 36 26 26 25 26 24
28 34 36 36 35 32 33 34 44 56 52 48 40 48 43 38 33 34 32 36 26 22 22 29 44 48 38
39 40 38 34 32 30 31 38 48 66 75 45 50 44 41 36 38 56 43 42 36 47 88 99 89 77 63
40 37 34 34 40 30 29 35 38 46 59 64 58 42 43 70 100 100 100 100 90 100 90 100 95 77 63
34 33 50 46 28 28 32 34 35 43 42 41 46 79 99 86 82 100 99 87 94 96 81 74 97 99 83
36 59 79 61 48 40 36 37 43 48 67 93 100 100 100 100 88 57 69 79 88 92 95 92 93 100 69

GFSFLT2_500_rhum_039.txt.gz
RH
72 80 77 85 90 72 66 60 69 68 56 44 36 30 25 22 19 17 17 15 11 9 7 5 4 3 3
87 94 92 86 73 70 81 73 57 41 32 26 23 21 20 19 16 11 9 8 6 5 4 3 3 4 7
96 90 71 81 82 68 48 37 31 28 25 21 18 12 9 10 9 8 6 4 4 4 6 9 10 10 10
72 77 80 61 44 36 32 30 26 20 14 10 8 10 9 8 6 4 4 7 11 12 12 10 8 9 10
80 55 44 38 35 31 26 24 20 14 12 11 9 7 5 4 6 15 17 16 18 16 11 10 12 12 12
45 41 37 30 24 19 14 15 14 10 7 6 4 4 7 17 18 19 21 21 17 15 13 13 14 16 15
35 28 23 19 17 18 17 12 8 6 3 4 10 20 21 26 30 30 28 24 22 18 16 18 19 18 22
30 27 24 22 20 14 9 7 4 6 17 18 21 24 26 31 33 30 28 26 24 23 22 20 18 26 36
29 23 18 13 9 6 4 5 14 22 37 24 23 23 24 30 33 36 36 32 25 22 21 23 31 38 40
17 14 11 5 4 8 17 24 24 22 35 26 30 29 24 27 30 48 64 63 46 37 34 35 39 33 32
11 4 5 12 29 33 31 30 30 28 28 18 19 24 26 25 35 55 68 66 54 52 46 44 37 31 29
5 13 33 39 37 35 34 28 26 21 21 21 22 33 41 48 48 58 55 48 44 43 37 31 26 28 32
38 40 40 40 33 31 37 24 24 23 21 23 34 38 36 33 31 38 33 37 28 30 35 76 98 95 68
43 42 32 32 51 45 31 26 27 32 26 26 33 45 65 85 97 98 88 100 99 82 90 96 88 87 95
32 30 38 74 79 81 83 76 64 64 67 78 82 82 78 68 87 99 100 100 96 98 92 100 100 89 77
29 32 58 77 87 90 87 83 81 82 84 93 100 100 98 94 57 67 89 94 100 100 99 91 99 96 84
33 33 42 72 87 93 93 90 94 91 88 86 94 98 100 100 100 74 58 64 75 90 92 90 91 100 94

GFSFLT2_500_rhum_042.txt.gz
RH
93 100 99 92 94 92 78 72 79 82 70 77 72 59 47 40 36 33 30 27 23 17 14 12 10 10 9
100 100 100 100 87 89 90 69 73 81 68 48 41 37 34 31 27 23 18 15 13 12 11 9 8 6 6
100 100 90 99 90 70 74 75 59 47 43 39 34 28 23 19 16 16 16 14 12 12 8 5 3 3 3
96 90 79 81 77 59 51 48 43 38 31 27 24 22 22 20 18 14 12 9 6 4 3 3 4 7 11
97 91 77 55 50 43 36 29 31 31 30 28 24 18 12 10 8 6 4 4 5 8 12 15 17 17 18
61 50 46 34 30 30 29 29 30 29 23 16 13 11 8 4 7 15 19 20 20 21 20 19 19 18 18
39 30 31 29 29 27 22 16 13 14 12 8 4 6 15 23 27 30 32 33 31 28 25 23 22 22 21
32 29 25 19 14 10 10 7 4 4 7 12 24 26 29 35 38 37 37 35 32 29 28 27 27 26 26
22 15 12 10 8 4 3 5 14 26 38 22 28 26 24 26 32 41 40 33 26 23 22 20 20 22 24
10 8 5 3 4 9 21 23 22 22 23 14 17 17 12 23 31 44 46 38 32 29 26 26 32 28 31
3 3 5 17 25 29 26 20 19 18 13 11 18 23 22 24 45 41 44 43 41 42 32 28 28 29 29
9 18 23 26 22 22 40 53 39 30 35 41 44 45 46 40 35 38 35 35 32 32 42 60 77 79 69
21 24 20 18 26 62 68 69 70 61 52 50 54 68 68 65 81 89 89 100 80 76 80 84 78 82 97
26 20 18 21 49 64 73 74 80 84 70 68 68 74 78 72 68 89 94 100 100 91 79 93 86 74 73
23 20 19 22 35 60 69 73 68 76 88 90 87 98 96 83 75 59 66 81 73 85 99 100 100 100 98
25 24 23 21 22 33 62 76 78 87 83 83 89 97 100 100 77 71 82 62 73 72 70 81 100 100 94
34 32 31 26 24 20 31 66 86 93 94 84 90 89 88 100 100 83 71 78 79 84 80 89 100 100 100

GFSFLT2_500_rhum_045.txt.gz
RH
72 89 96 99 98 97 94 84 82 88 87 87 77 70 59 50 45 42 41 39 38 34 31 28 24 21 19
72 92 100 99 99 99 99 98 93 92 92 79 58 48 45 37 31 25 24 25 24 22 21 20 20 19 17
99 98 99 99 98 97 98 96 93 70 53 45 34 30 28 27 24 23 24 22 22 21 21 20 19 17 15
96 98 100 100 99 98 85 57 50 45 38 32 30 28 24 17 13 12 11 11 11 12 12 11 11 10 9
100 100 99 86 65 52 41 34 30 29 30 25 14 11 11 9 7 4 3 3 3 4 4 6 7 8 9
93 92 68 42 29 27 29 27 16 14 10 9 6 4 3 3 6 10 18 20 20 21 21 21 21 21 21
45 33 28 28 26 20 14 10 6 4 4 3 3 9 17 23 26 24 23 22 23 23 25 27 26 25 23
24 24 20 15 11 8 5 4 3 4 6 7 16 16 14 16 14 11 10 10 12 15 18 22 26 28 29
8 7 6 5 4 3 3 5 10 14 11 9 16 12 13 14 13 13 15 15 17 20 24 29 31 30 27
5 5 4 4 5 10 12 10 9 10 12 28 51 39 37 34 35 38 45 46 50 46 46 44 41 36 33
4 4 7 12 13 11 9 14 31 41 40 38 54 55 50 58 87 75 69 73 70 68 62 69 76 73 66
8 12 14 15 12 12 15 41 47 45 45 41 50 51 61 67 82 95 87 85 77 72 67 65 62 66 81
16 17 18 18 14 16 16 25 48 49 38 43 54 60 66 69 68 73 70 83 86 83 72 56 71 72 74
21 22 24 23 22 21 22 18 25 54 52 47 59 74 84 85 78 74 64 67 78 75 78 84 89 100 100
30 31 32 31 32 30 28 26 18 25 61 65 61 84 89 87 85 61 47 60 54 59 66 85 91 82 88
37 38 40 40 41 39 37 33 25 21 46 60 68 82 88 99 83 79 78 78 89 95 95 100 100 96 100
46 45 45 43 40 40 42 36 34 23 31 53 60 72 81 95 100 80 84 87 92 96 92 95 100 100 100

GFSFLT2_500_rhum_048.txt.gz
RH
98 99 95 98 99 95 98 76 90 90 95 95 95 98 96 95 96 86 65 42 35 31 26 22 20 19 18
98 89 82 99 98 97 81 100 99 86 91 96 98 96 96 93 69 47 25 22 21 21 20 19 18 17 15
72 65 76 99 90 88 95 95 99 100 100 96 85 70 44 28 22 22 20 17 14 12 10 8 8 9 10
87 93 99 96 97 97 98 100 98 96 93 80 56 27 23 21 18 13 10 7 6 5 4 3 3 3 4
87 95 96 87 100 100 88 50 37 32 27 25 22 16 11 8 6 5 4 3 3 4 6 8 11 13 14
95 100 100 92 55 28 24 20 15 14 8 7 6 5 4 4 4 4 5 6 6 6 7 8 9 9 10
92 60 29 22 19 11 6 5 6 5 4 4 4 6 8 10 9 7 6 8 16 19 21 16 13 12 12
23 18 14 10 8 5 4 4 4 4 6 9 10 9 10 20 17 22 26 27 30 34 38 40 29 18 18
3 3 3 3 4 4 4 5 11 11 9 9 15 20 45 50 43 35 34 35 37 37 37 42 44 28 18
3 3 4 5 5 6 10 13 12 12 10 30 48 44 44 67 60 50 48 50 56 56 44 52 53 53 65
5 6 6 7 10 12 14 15 13 14 11 16 44 51 46 49 84 69 70 71 70 66 52 57 54 48 60
7 8 9 13 16 18 19 20 18 19 18 13 26 44 49 58 65 80 79 77 75 61 59 71 54 51 60
10 13 14 20 24 26 25 26 28 25 21 14 14 34 46 46 54 74 74 80 67 63 73 76 69 64 70
14 17 23 30 33 35 37 36 38 38 31 23 16 27 50 56 68 74 78 74 73 58 74 79 73 78 98
22 31 39 43 43 43 42 42 38 42 42 32 18 26 51 60 76 78 74 76 68 75 80 97 96 86 86
37 45 51 53 52 52 47 43 42 45 44 38 22 24 41 53 68 84 83 81 86 94 96 100 100 94 96
42 52 60 62 60 61 60 55 50 47 49 44 29 22 36 47 62 82 83 85 90 98 99 100 100 100 100

GFSFLT2_500_rhum_051.txt.gz
RH
55 66 99 88 73 73 63 98 80 76 72 96 96 93 86 69 77 80 69 65 70 77 84 85 78 80 81
83 92 99 95 98 98 99 91 69 77 74 98 87 82 79 76 86 93 99 95 93 92 80 66 46 27 20
36 50 61 62 98 95 97 98 99 98 96 90 87 86 93 93 86 61 35 24 19 18 18 16 14 10 8
64 95 96 87 96 93 92 86 90 96 96 95 86 65 36 18 12 9 7 6 5 5 4 4 4 4 4
95 93 81 93 98 99 100 96 78 72 53 29 16 14 11 9 7 6 5 4 4 3 4 4 5 5 5
71 80 100 98 93 71 22 12 8 6 4 5 4 4 4 3 3 4 4 4 5 5 5 5 8 14 17
99 89 54 26 19 5 4 4 3 3 3 4 4 4 5 6 6 6 6 6 6 14 24 29 29 29 31
22 10 7 5 4 4 4 4 4 4 5 6 7 9 10 10 9 10 13 20 26 26 32 32 33 40 42
9 6 4 4 4 4 5 6 6 8 8 11 11 12 14 13 21 29 33 29 30 36 39 45 44 46 46
6 6 5 4 5 6 7 8 10 14 14 17 17 16 16 18 20 40 42 34 39 51 59 63 55 53 55
5 4 5 7 8 10 13 15 18 21 20 20 22 22 22 16 19 36 49 49 48 63 66 66 56 48 56
4 6 8 10 11 13 14 20 27 29 29 25 24 25 25 20 17 39 54 48 55 66 72 73 47 54 54
9 12 14 15 15 18 25 33 38 37 36 32 27 27 28 22 18 36 48 62 64 67 77 74 58 48 72
16 17 18 25 29 33 40 40 45 48 44 39 32 31 34 30 21 32 45 48 70 82 84 83 88 90 88
18 27 33 35 38 40 46 51 53 55 58 49 42 36 37 38 26 29 37 49 66 74 79 90 94 83 78
34 37 43 45 48 49 50 54 55 57 60 60 52 43 44 47 35 28 29 38 53 76 90 92 100 88 83
41 46 50 55 56 55 56 59 61 58 63 62 52 43 39 42 52 31 26 34 43 59 85 99 100 99 96

GFSFLT2_500_rhum_054.txt.gz
RH
96 93 86 98 92 96 65 86 83 96 98 98 93 84 91 86 69 64 67 72 74 72 70 64 61 65 76
88 100 79 62 46 38 49 39 46 48 63 56 67 92 88 83 84 80 77 69 72 83 79 74 82 79 74
45 39 33 28 29 74 82 99 100 100 95 80 77 85 97 94 84 79 83 62 48 39 31 30 22 15 11
32 37 40 49 48 56 84 78 100 90 80 95 97 85 49 27 37 11 8 7 6 5 5 5 5 5 4
63 52 48 89 100 100 99 98 90 85 65 25 11 7 4 4 4 4 4 3 3 3 3 4 4 4 4
66 87 95 77 100 99 81 28 15 8 5 4 5 4 5 5 5 4 4 5 5 5 5 6 6 6 6
87 96 98 76 27 12 8 6 5 5 5 4 4 5 5 6 6 7 7 7 7 7 7 8 13 22 26
66 40 18 10 8 8 8 6 6 6 5 6 6 7 8 9 10 11 10 10 11 10 9 23 30 33 36
15 11 10 9 9 7 6 5 4 6 6 8 8 11 15 18 18 18 17 16 14 11 12 32 34 40 49
15 10 8 8 6 5 6 8 9 10 10 11 11 11 21 32 31 28 25 20 16 11 12 34 37 38 58
11 8 8 5 7 10 13 14 15 15 14 16 29 29 31 31 44 39 32 27 19 16 22 40 44 58 63
10 6 6 11 14 16 17 18 24 30 30 29 34 39 40 39 37 44 37 31 22 28 45 52 61 67 61
7 7 13 18 18 20 30 34 37 39 39 38 39 42 43 41 35 39 33 41 27 30 43 51 66 73 63
9 16 19 19 29 32 35 39 43 45 46 45 44 42 44 47 43 39 40 33 31 28 36 48 66 75 76
18 21 23 33 35 38 41 46 50 53 57 58 55 50 48 50 46 42 39 39 29 24 31 39 55 76 82
19 22 37 40 42 45 47 51 55 57 62 62 58 55 52 61 50 46 44 43 40 28 24 30 40 58 75
22 30 43 43 44 45 48 56 61 63 65 60 56 51 47 46 53 60 42 42 41 36 28 26 31 40 67

GFSFLT2_500_rhum_057.txt.gz
RH
61 78 98 79 98 89 96 100 99 97 88 58 51 62 53 43 40 41 53 53 65 64 71 74 64 57 56
98 99 99 99 98 99 92 87 64 40 31 29 63 76 81 88 87 87 67 82 75 71 71 75 69 63 63
99 100 98 97 77 62 54 35 32 44 52 64 70 84 97 92 89 78 81 73 74 69 52 38 40 27 28
99 90 67 50 45 45 57 61 55 74 98 95 96 73 40 40 50 37 20 11 7 5 7 6 6 5 5
85 61 50 58 60 77 64 84 99 92 75 44 16 12 7 6 5 4 4 5 5 5 4 4 4 5 5
89 84 90 97 92 88 94 98 42 17 10 8 10 9 9 8 7 8 9 8 8 6 5 5 6 6 6
93 97 88 64 34 23 19 14 12 11 10 10 9 7 6 5 6 5 5 6 6 7 7 7 8 8 9
26 23 22 21 20 19 17 15 13 11 9 7 6 6 6 6 8 8 8 9 10 10 11 13 14 14 14
27 26 25 21 16 14 12 12 10 7 5 8 9 11 13 13 13 13 12 14 14 16 18 19 18 16 14
30 24 17 15 15 15 11 8 7 8 11 14 14 16 18 24 26 25 25 25 25 26 24 21 19 16 14
24 16 16 18 16 7 7 11 16 18 17 18 25 28 30 39 55 47 42 38 37 35 29 24 24 17 23
23 21 20 21 7 7 13 17 20 26 28 28 36 37 38 41 49 60 53 51 47 40 34 33 31 23 33
30 25 14 7 8 14 18 25 33 33 33 34 39 43 43 46 51 61 58 70 60 50 40 42 36 27 33
20 8 6 9 15 20 26 37 39 37 38 39 41 42 45 46 49 56 54 52 59 52 42 45 40 28 28
12 7 8 15 18 20 37 42 40 41 43 42 46 49 48 45 47 48 50 52 45 45 39 39 41 33 26
13 8 13 17 19 22 39 45 48 49 55 55 48 45 52 63 54 47 48 43 41 40 38 35 46 48 31
9 11 19 20 21 27 40 51 55 59 63 64 64 55 45 61 78 74 60 50 42 40 37 33 39 46 33

GFSFLT2_500_rhum_060.txt.gz
RH
100 99 100 100 91 99 99 99 98 96 99 99 95 94 96 92 90 77 34 42 50 54 69 59 47 45 45
86 99 99 100 100 98 99 98 98 97 96 92 80 74 51 52 50 50 52 54 52 58 66 64 73 55 49
52 75 90 99 95 98 95 94 97 94 91 71 48 63 53 54 70 80 81 81 71 66 67 68 61 58 56
78 57 74 74 88 93 95 92 74 63 65 67 74 82 80 74 52 32 14 12 12 9 8 7 6 7 8
97 72 55 64 94 88 82 94 92 78 64 44 35 35 21 10 10 11 12 13 11 10 8 6 8 9 10
88 78 82 84 89 85 70 50 28 26 19 19 19 17 15 13 12 12 12 11 8 7 7 8 8 8 6
44 51 55 46 32 34 22 21 22 20 18 15 14 14 13 10 8 7 7 6 6 6 6 6 7 7 7
22 21 21 21 21 21 21 20 18 17 18 17 14 10 8 6 6 7 8 9 10 10 10 10 11 11 11
28 28 28 27 25 24 22 19 18 19 17 12 10 8 8 11 14 14 14 14 14 13 14 15 16 17 20
34 33 32 32 31 28 26 25 22 18 11 7 9 13 15 17 19 23 24 26 27 27 26 26 27 28 29
38 38 37 36 36 32 24 20 16 13 7 11 15 20 28 34 37 35 34 32 33 33 32 32 31 30 34
42 41 42 42 40 30 22 20 11 8 12 16 28 26 28 38 48 47 43 43 44 43 41 38 39 39 38
48 47 48 47 41 32 24 9 9 14 16 23 34 32 30 36 48 58 52 57 55 53 51 50 47 46 46
49 52 52 42 39 28 12 9 16 19 20 35 39 33 34 37 40 64 58 54 60 55 56 59 55 52 47
51 54 52 50 42 19 11 17 24 27 31 44 46 46 46 53 58 55 57 66 63 56 49 50 54 52 51
58 61 57 46 19 13 16 24 29 34 43 58 61 59 58 61 60 66 70 55 59 63 65 52 48 48 43
65 60 49 14 12 15 20 28 34 34 44 58 65 64 65 69 72 75 72 71 58 57 60 59 48 54 43

GFSFLT2_500_rhum_066.txt.gz
RH
17 23 33 37 49 72 93 73 91 100 100 100 99 97 98 95 99 99 98 97 98 95 96 100 100 100 99
11 15 20 46 39 43 64 39 46 79 85 86 83 94 95 88 88 72 69 74 96 95 88 87 93 68 77
12 13 14 25 51 44 69 75 76 72 68 67 79 81 70 75 78 79 79 76 79 89 90 86 86 85 84
14 14 15 17 20 46 70 77 80 82 83 77 76 83 82 81 66 43 29 20 20 19 19 22 24 26 29
19 19 19 19 20 22 22 21 22 24 26 26 26 27 27 24 24 22 21 18 17 16 16 16 16 15 15
23 25 25 23 22 22 22 23 24 26 25 25 25 25 25 25 23 22 22 22 22 21 19 17 16 16 14
28 29 28 27 27 28 27 27 26 26 31 32 32 35 34 35 35 31 27 27 26 22 19 16 14 9 6
36 35 34 32 32 30 30 29 28 28 31 36 35 36 36 38 36 33 32 29 26 21 15 13 10 8 9
44 42 40 38 37 34 32 31 28 28 29 32 32 33 34 33 31 32 34 33 28 17 10 10 12 16 19
48 46 44 42 40 38 34 31 30 29 30 31 29 31 35 36 37 38 37 30 18 12 13 15 20 21 22
50 48 47 45 42 40 38 34 34 34 36 38 43 43 40 38 42 34 20 13 14 17 18 25 28 24 24
59 55 51 48 46 47 46 43 40 40 44 48 46 44 43 33 17 13 13 17 19 22 24 35 34 26 28
66 62 61 62 64 64 57 49 46 50 53 50 52 40 15 11 12 17 21 26 25 27 32 46 38 37 41
68 68 70 72 75 73 67 58 60 60 60 59 42 13 11 11 12 19 28 37 49 45 41 53 51 51 51
70 71 72 71 73 74 73 61 65 74 67 54 19 11 10 12 14 17 32 57 64 64 58 71 74 73 66
82 82 86 88 87 84 72 54 76 75 54 20 13 9 10 16 16 18 31 53 82 81 83 83 92 99 83
89 95 95 96 92 77 50 76 78 62 21 16 15 12 14 17 22 23 20 44 76 99 100 100 90 100 89

GFSFLT2_500_rhum_069.txt.gz
RH
11 10 10 10 10 10 13 20 32 34 68 77 90 100 98 99 99 98 96 100 99 100 96 97 98 82 80
11 11 12 12 11 11 12 24 35 38 42 56 69 96 100 95 98 99 100 99 85 90 100 100 99 87 81
12 14 13 13 14 14 13 15 16 26 55 64 68 73 66 72 82 84 82 82 79 76 72 76 75 82 84
16 17 16 18 19 19 18 18 19 20 20 21 21 26 38 51 60 68 70 73 71 63 51 49 45 48 56
20 22 23 24 24 24 23 23 24 25 26 26 24 24 26 26 25 25 25 25 24 23 21 20 19 19 18
27 28 29 30 31 30 29 28 28 28 27 26 27 26 28 30 30 30 31 31 31 31 30 28 26 26 25
34 35 39 40 39 38 38 36 34 33 32 29 29 29 32 32 32 32 33 33 34 33 32 31 30 28 25
44 50 47 45 43 42 41 39 38 37 36 33 30 28 28 28 29 33 34 35 36 36 35 34 33 33 32
68 65 56 52 49 46 45 44 41 40 38 36 33 31 30 29 30 30 31 35 38 38 36 36 36 34 25
71 69 66 65 62 57 53 47 44 44 44 44 41 38 38 38 38 39 40 37 35 38 37 29 20 16 14
80 81 80 75 70 63 58 53 52 52 56 56 52 47 44 43 44 48 48 47 39 21 12 11 12 14 21
86 85 83 78 71 60 56 56 57 58 62 62 64 59 54 53 66 62 55 32 13 11 11 12 14 18 26
74 77 76 70 65 64 67 68 67 67 70 69 71 66 50 66 68 49 22 12 10 10 11 12 14 21 33
55 59 66 70 70 73 75 80 86 86 85 84 60 48 71 62 46 16 14 13 15 13 12 14 15 25 41
72 71 72 76 61 31 24 38 59 66 48 36 41 69 64 36 17 17 15 15 15 16 17 17 18 26 42
72 53 22 14 15 18 20 23 28 32 45 50 69 58 50 19 19 20 18 17 17 19 20 20 26 54 62
15 14 17 19 16 18 21 19 27 49 67 86 80 64 22 20 24 22 25 26 25 22 21 22 24 77 96

GFSFLT2_500_rhum_072.txt.gz
RH
18 15 13 11 11 10 10 12 12 12 10 16 33 38 55 61 91 100 99 98 96 100 98 98 97 95 98
16 15 13 12 13 13 13 14 15 15 14 14 14 22 45 57 72 88 100 100 99 96 95 99 92 100 97
16 15 14 15 16 17 18 18 19 18 18 19 18 18 18 20 40 65 81 99 100 97 91 89 83 87 100
18 17 17 20 22 22 23 24 24 24 24 24 24 23 22 21 22 24 22 23 36 55 68 75 79 79 75
21 22 25 28 28 29 31 32 34 34 33 32 30 29 29 27 25 23 23 26 26 23 22 22 22 23 23
27 29 32 34 34 40 44 42 42 42 39 38 36 35 34 32 30 28 26 24 25 28 30 29 28 27 26
38 40 43 45 53 61 58 50 48 46 43 40 39 39 38 37 35 32 30 28 27 27 29 30 30 30 30
71 73 72 69 65 65 64 62 61 58 54 50 45 42 41 39 37 36 34 32 32 31 32 34 36 38 38
65 67 71 74 73 74 73 72 68 63 59 54 48 46 47 47 47 46 43 41 40 39 39 39 40 44 43
64 67 69 74 76 74 73 71 67 65 57 52 47 46 45 48 57 56 52 50 47 48 47 39 40 45 42
56 58 57 55 55 58 60 62 60 58 62 67 70 67 68 69 68 66 66 65 62 58 44 46 52 51 42
53 50 48 46 46 49 53 58 62 63 53 29 17 23 54 84 92 90 82 66 46 47 54 51 45 28 15
59 52 47 49 54 57 60 48 20 12 12 12 15 20 25 46 60 60 48 58 62 56 46 23 15 13 11
64 55 53 53 60 53 16 14 20 22 22 18 17 20 22 30 39 64 77 74 57 32 14 15 14 14 14
69 66 61 52 18 16 20 21 20 19 18 18 15 18 24 49 74 83 82 59 32 18 19 19 18 17 17
68 63 39 16 17 18 18 19 19 19 19 16 16 16 21 56 86 81 60 32 20 22 22 23 28 29 26
66 30 16 18 18 20 21 22 23 24 24 22 20 18 33 92 92 58 36 22 25 24 24 29 33 33 23

GFSFLT2_500_rhum_075.txt.gz
RH
32 29 22 19 16 15 13 12 12 12 14 15 16 16 16 15 14 20 44 82 99 100 100 100 100 86 98
30 24 20 18 16 15 14 16 16 17 18 19 19 20 21 20 19 16 20 44 61 93 99 100 98 98 100
28 24 20 19 18 17 18 21 23 22 24 25 25 26 27 27 27 25 22 18 19 37 60 82 93 99 100
27 24 22 22 21 22 26 28 30 32 36 35 34 35 34 32 32 32 30 28 25 20 18 19 31 55 70
30 26 26 28 29 31 33 34 40 50 54 50 46 43 40 37 36 34 35 34 34 32 27 22 20 19 20
47 46 45 44 46 48 54 61 63 63 57 55 54 52 50 47 44 41 39 37 37 36 34 32 28 24 21
53 51 56 58 56 61 64 63 64 64 65 64 64 60 56 54 50 46 42 39 38 37 36 34 33 32 31
49 54 60 61 62 63 64 66 66 66 67 66 63 58 56 52 47 43 41 40 40 41 43 42 39 37 36
46 49 53 51 53 54 56 57 54 54 52 53 52 51 50 50 51 51 53 53 51 48 48 50 49 46 44
41 45 50 51 49 47 44 41 38 40 41 45 46 48 44 28 14 10 9 9 13 47 67 66 64 62 58
52 55 54 51 52 50 46 44 45 47 53 50 28 12 13 16 19 19 14 12 15 25 69 90 86 81 76
57 56 58 55 54 54 51 49 49 47 30 13 15 19 21 22 22 22 19 15 18 23 28 32 37 43 45
66 67 67 66 64 62 60 57 49 17 16 19 19 18 18 19 19 18 17 15 16 20 31 36 60 69 66
74 75 76 74 68 64 57 37 16 18 18 19 20 22 22 21 21 21 18 17 17 22 29 61 72 66 46
80 83 80 78 76 67 35 16 17 18 22 29 29 27 23 22 24 26 24 22 20 34 59 70 56 32 21
86 86 83 78 76 43 16 17 20 30 31 31 30 16 12 16 21 28 30 29 52 77 76 53 27 23 20
88 89 85 82 62 17 17 22 34 34 34 31 13 12 15 19 29 42 43 57 81 80 54 30 24 21 22

GFSFLT2_500_rhum_078.txt.gz
RH
34 30 34 33 30 26 21 18 16 14 16 18 18 18 20 20 21 23 22 21 18 18 38 70 98 100 100
36 36 35 32 27 24 22 19 18 17 19 22 23 24 26 27 28 30 29 28 26 23 20 17 35 68 98
39 40 37 34 31 26 23 22 22 23 25 28 31 38 40 38 39 37 34 33 34 32 29 26 21 16 22
44 40 38 36 31 30 28 29 30 32 32 35 49 58 58 52 48 45 42 39 37 36 35 34 30 26 22
41 41 43 45 42 47 50 51 54 56 58 64 59 56 56 56 56 53 50 48 47 44 41 39 38 34 31
44 43 42 41 43 47 50 53 54 56 59 63 63 61 60 60 58 56 54 49 46 44 42 41 39 38 36
44 41 37 34 36 42 47 47 49 51 53 56 58 59 57 55 52 47 38 33 33 36 38 38 38 40 44
32 33 30 33 35 38 42 44 45 43 44 42 40 39 39 39 36 36 36 34 27 20 17 18 24 35 46
33 35 36 40 44 47 47 44 41 42 40 39 39 39 40 41 42 35 18 10 11 13 14 14 14 11 10
41 44 48 50 49 48 47 48 46 48 46 46 43 44 44 32 14 13 15 18 18 20 22 23 23 18 12
49 49 53 55 54 50 50 51 52 54 58 54 50 45 18 15 18 19 20 20 20 20 19 19 19 19 16
55 56 61 63 62 60 58 62 64 63 61 57 43 18 16 18 20 23 26 27 28 28 25 21 20 17 15
65 68 70 71 67 64 66 68 70 68 66 50 18 16 18 23 28 29 29 29 22 14 16 24 26 21 18
78 78 81 80 74 76 74 75 71 66 60 18 16 16 25 32 29 27 25 15 12 12 15 26 27 26 26
92 92 91 88 84 81 78 76 74 71 20 16 18 30 35 28 26 20 16 15 13 16 22 29 40 55 62
93 93 93 94 93 87 80 80 81 28 16 22 36 35 26 26 20 17 18 18 15 17 20 36 87 86 78
95 95 94 94 95 89 85 83 25 18 23 32 32 24 26 21 17 18 18 16 20 20 26 60 86 78 60

GFSFLT2_500_rhum_081.txt.gz
RH
25 33 40 44 32 33 33 33 31 25 19 18 17 18 20 22 25 27 28 28 30 29 27 26 24 21 27
37 55 50 35 35 38 36 34 27 23 22 22 22 26 27 28 35 38 38 38 38 36 34 33 31 29 27
68 46 39 41 41 38 35 33 34 32 29 29 29 31 34 46 52 56 56 49 46 42 40 38 36 34 32
55 42 45 38 40 39 37 40 39 40 47 48 48 51 56 60 59 57 55 55 52 50 47 45 44 42 39
45 48 39 39 40 36 37 39 37 34 49 48 50 53 55 56 57 57 58 59 58 56 53 47 42 40 40
50 47 44 42 42 39 35 34 37 34 40 43 44 44 46 47 48 50 51 50 47 41 36 32 32 35 37
51 52 51 45 39 30 33 34 35 38 41 42 42 39 38 38 36 34 32 30 30 31 32 31 23 14 9
59 57 43 38 33 31 34 38 41 41 41 40 40 38 40 38 38 37 36 35 34 28 20 12 10 10 11
65 50 44 41 37 38 43 47 47 39 43 45 45 44 44 45 45 44 42 33 18 11 12 14 15 16 15
67 54 49 49 47 47 52 54 52 50 51 54 57 59 57 54 51 48 32 15 14 17 18 17 16 18 19
72 65 59 56 55 54 58 62 62 62 62 62 63 65 62 61 55 27 16 16 18 17 16 15 15 18 23
84 72 69 63 63 64 70 71 69 67 69 70 68 64 62 62 30 17 15 15 19 19 16 18 20 18 14
86 84 97 96 83 78 84 83 79 77 74 72 69 67 69 34 16 15 16 18 18 16 18 20 16 15 13
94 100 100 99 93 86 86 86 86 82 78 74 70 75 51 16 17 24 24 21 17 19 20 17 18 17 15
98 100 100 99 84 85 86 88 84 80 78 79 78 65 18 19 26 25 23 19 20 23 19 18 16 19 17
100 100 100 95 92 88 87 87 85 81 86 88 83 24 24 27 27 28 22 21 23 25 18 17 18 19 24
100 100 100 96 96 93 92 92 92 90 96 96 49 27 31 34 38 30 24 22 26 22 17 17 23 47 52

GFSFLT2_500_rhum_084.txt.gz
RH
44 44 37 31 36 50 54 36 37 34 35 29 23 21 20 20 22 24 25 29 33 34 35 36 32 31 31
48 52 34 43 58 57 39 40 40 36 32 31 29 28 27 26 27 29 36 45 49 50 47 43 40 38 37
55 54 56 82 53 43 44 40 38 36 38 36 37 38 39 39 38 37 45 58 60 55 52 51 48 48 46
82 76 81 56 54 46 44 41 40 35 32 31 34 34 36 39 42 44 49 54 56 55 57 60 60 57 53
91 88 62 73 55 48 47 46 37 36 34 30 33 34 34 34 36 39 44 48 51 53 54 52 49 43 37
98 97 93 71 64 51 53 51 43 34 30 32 32 32 33 37 36 34 39 39 37 35 33 32 32 32 31
98 98 89 77 61 53 53 43 38 34 30 34 35 32 32 34 32 32 36 36 36 36 36 36 35 33 30
100 100 99 81 68 56 46 45 42 38 38 40 38 33 35 38 40 39 39 40 40 41 42 39 30 17 12
100 100 100 84 68 58 55 51 46 48 50 46 45 43 46 46 47 47 47 47 47 48 46 25 14 14 15
100 100 98 88 77 67 65 63 60 57 58 58 57 58 57 54 53 51 53 52 47 47 29 16 16 16 14
100 99 98 94 88 80 71 68 69 68 66 69 70 69 65 64 64 58 54 52 53 37 17 15 14 16 16
100 99 99 94 96 84 84 87 87 82 81 82 82 78 74 70 65 58 56 60 43 19 15 15 16 17 17
100 98 97 90 97 99 100 100 99 98 95 90 86 85 80 76 71 60 61 56 20 15 18 18 18 18 18
98 98 100 100 100 99 100 100 98 91 89 88 86 81 79 81 80 76 72 33 16 18 21 21 20 19 19
100 100 100 100 100 100 100 100 94 88 90 87 82 80 85 88 87 85 62 20 21 24 28 28 23 20 20
100 99 100 100 100 100 100 100 96 91 83 81 83 85 91 94 92 87 56 29 27 32 33 30 24 20 21
100 100 100 100 100 100 99 95 92 91 89 87 84 84 95 95 96 79 46 48 35 40 33 29 22 22 22

GFSFLT2_500_rhum_087.txt.gz
RH
73 72 70 57 53 56 63 41 42 73 40 39 36 33 26 26 22 22 22 23 24 26 32 34 36 40 39
79 73 66 62 82 62 63 54 80 45 43 39 38 32 33 32 33 32 31 30 31 36 43 51 54 52 46
78 60 80 78 93 74 72 91 51 46 42 40 39 39 34 37 40 43 48 50 53 53 54 52 52 52 54
69 75 78 96 86 98 93 65 66 48 44 47 47 39 34 31 34 38 38 40 42 44 42 56 56 56 56
96 95 94 92 96 100 88 75 66 52 56 54 46 41 34 33 32 34 38 39 36 38 44 43 40 44 47
100 98 99 98 99 100 99 95 79 65 65 57 47 40 32 33 34 32 34 34 31 31 34 33 33 32 31
100 100 95 100 100 98 98 98 82 70 62 52 44 41 36 37 35 29 32 35 35 36 38 39 38 39 40
95 100 99 100 100 100 100 98 80 56 49 49 50 45 44 44 36 35 37 39 41 44 46 46 48 49 48
100 100 100 99 99 100 100 95 71 61 59 59 58 59 60 55 50 48 50 50 48 48 50 53 51 46 47
100 100 100 100 100 100 100 98 80 70 72 68 67 68 68 65 64 64 60 58 60 58 56 54 51 50 41
100 100 100 100 100 100 100 97 91 83 76 77 76 74 72 74 72 71 69 66 64 61 57 54 51 51 30
100 100 100 100 100 100 100 100 99 96 96 97 94 95 91 86 87 77 76 72 68 64 61 59 59 42 17
100 100 100 100 100 100 99 100 100 100 100 100 100 100 97 90 83 76 73 74 69 64 66 68 66 27 16
100 100 100 100 100 98 99 100 100 100 100 100 100 98 92 90 84 73 70 70 68 73 74 78 61 21 19
99 99 100 98 90 94 96 100 100 100 100 100 100 98 98 95 91 80 76 75 76 79 81 83 65 37 26
97 99 100 99 100 100 100 100 100 100 100 100 100 97 96 96 92 90 83 77 80 86 89 84 60 50 49
100 100 95 87 85 93 97 100 100 95 97 97 95 96 100 100 94 96 87 79 85 90 84 77 56 64 58

GFSFLT2_500_rhum_090.txt.gz
RH
54 61 74 90 87 85 75 69 63 73 82 57 79 45 40 36 30 26 25 24 23 22 22 23 29 33 34
64 82 95 95 89 73 59 72 86 94 76 87 66 42 41 35 32 32 33 33 33 31 29 32 38 43 51
91 99 97 90 97 95 86 99 99 96 99 97 50 47 39 35 39 41 41 40 42 46 47 48 48 47 47
79 87 88 96 99 96 98 99 99 98 100 50 66 52 42 48 52 45 42 44 42 38 36 38 39 43 44
98 96 99 100 100 99 95 99 100 100 70 83 72 62 60 60 51 47 44 42 42 39 37 33 30 34 34
94 99 98 100 100 100 100 100 100 100 81 81 94 78 73 61 54 48 41 39 41 39 33 29 32 33 31
98 100 98 100 100 100 100 100 100 100 100 100 99 96 75 62 52 52 45 39 35 36 37 36 37 37 38
93 99 100 100 100 100 100 100 100 100 100 100 97 75 61 60 59 55 54 47 40 39 41 43 45 47 46
99 100 100 99 100 100 100 100 100 100 100 100 93 78 71 69 64 63 63 56 52 52 54 52 51 54 52
87 90 100 100 100 100 100 100 100 100 100 100 99 88 79 78 77 77 74 71 70 70 67 65 66 62 58
100 100 100 100 100 100 100 100 100 99 100 100 100 94 87 88 87 86 86 89 87 81 76 74 71 67 62
98 100 100 100 100 100 100 100 100 100 100 100 100 100 100 100 99 98 99 100 98 89 84 77 71 70 68
100 100 100 100 100 100 99 98 98 97 91 85 91 99 100 99 100 100 100 100 98 90 84 75 71 71 71
100 100 100 100 100 100 100 99 100 100 98 96 93 98 97 98 100 100 100 100 96 88 81 78 79 83 81
98 96 97 99 100 100 100 100 99 99 99 100 99 99 100 100 100 96 98 98 92 86 83 84 77 84 89
93 94 100 100 100 100 93 90 88 85 86 88 86 88 91 95 97 95 93 87 83 83 86 87 85 79 87
100 93 96 100 100 100 100 100 99 90 90 92 95 95 100 100 99 100 98 85 85 88 80 84 90 85 75

GFSFLT2_500_rhum_093.txt.gz
RH
22 22 22 29 46 67 72 92 98 95 93 82 83 92 90 93 49 35 35 25 24 22 22 20 20 24 26
17 17 20 26 37 53 80 96 90 94 95 99 98 99 93 95 38 35 32 28 27 28 28 26 28 30 36
28 38 46 58 65 75 91 100 100 98 100 99 100 97 100 73 41 33 30 32 35 36 36 35 36 41 48
46 53 68 83 92 99 100 100 100 100 97 100 100 100 89 54 59 36 37 44 44 45 46 43 44 44 43
53 65 75 81 85 92 97 100 100 100 100 100 100 96 61 92 61 54 60 54 50 48 44 41 40 39 35
71 84 91 100 95 93 97 99 100 90 100 100 100 97 97 99 91 93 75 60 56 54 45 41 41 34 29
85 94 93 88 97 98 96 97 100 100 100 100 100 100 100 100 100 100 89 66 58 58 52 42 38 33 32
87 88 84 95 97 97 94 100 100 100 100 100 100 100 100 100 100 96 76 69 63 57 57 45 38 36 38
87 89 87 91 90 89 99 96 100 100 100 100 100 100 99 99 96 88 81 75 69 61 60 51 48 48 48
81 81 81 90 96 98 100 100 100 100 100 100 100 100 100 100 100 93 81 79 74 71 67 62 61 62 62
84 82 81 78 90 99 100 99 100 100 100 100 99 98 99 100 100 100 99 93 91 92 88 83 88 90 77
76 81 88 94 100 100 100 100 100 97 100 100 97 92 92 91 96 98 100 100 100 99 98 97 97 99 96
88 92 96 100 100 100 96 97 98 99 100 100 100 100 99 94 97 98 100 100 99 100 100 100 100 100 99
97 100 100 99 93 94 94 95 96 99 100 100 100 99 96 91 95 99 100 100 100 100 100 100 100 100 100
100 96 95 95 100 100 100 100 100 100 100 96 84 82 82 88 90 90 99 97 100 100 100 100 100 100 99
99 95 92 92 93 89 89 95 93 96 99 93 86 87 89 87 84 82 88 91 95 100 100 100 98 98 100
100 100 98 98 100 99 96 98 97 92 95 100 100 97 97 97 93 95 86 75 77 88 96 100 100 95 90

GFSFLT2_500_rhum_096.txt.gz
RH
9 9 10 11 13 16 19 22 24 37 73 97 92 99 98 98 99 98 88 70 29 31 20 19 18 18 17
11 12 16 20 24 29 34 42 56 63 99 97 90 96 91 97 98 100 99 30 26 26 22 22 22 22 22
19 25 26 30 37 44 52 64 75 82 86 99 96 100 100 100 100 97 95 54 28 26 25 27 28 26 25
30 30 34 38 42 50 67 82 96 100 93 100 100 100 100 100 100 100 69 49 34 30 32 35 36 34 33
32 34 35 44 50 61 73 85 92 100 100 100 100 100 100 100 100 99 99 66 37 37 42 45 46 48 48
37 42 48 60 67 75 79 88 96 97 100 100 100 100 100 100 98 96 100 61 67 66 64 67 63 52 45
44 49 58 67 71 78 83 94 98 92 95 93 95 100 100 100 95 96 97 93 100 98 81 72 68 64 52
51 59 64 73 78 85 84 86 98 100 90 100 100 98 100 100 100 100 100 100 100 98 95 78 69 62 54
58 60 66 70 76 83 87 89 89 96 87 93 100 100 100 100 100 100 100 100 100 97 96 81 72 61 54
62 66 74 76 78 81 80 89 87 80 84 89 90 93 100 100 100 100 96 93 98 99 95 84 73 63 56
77 72 71 73 81 86 82 82 84 93 99 96 98 100 100 100 98 95 97 100 98 96 94 87 77 71 66
92 85 76 78 76 74 78 82 83 89 98 99 100 100 100 100 96 92 87 86 95 100 100 98 96 93 90
98 96 87 84 89 87 91 98 100 96 93 94 99 100 100 96 96 98 97 87 92 93 95 94 100 100 100
100 99 90 88 90 91 93 95 94 96 97 96 95 93 90 93 95 99 98 88 89 95 98 98 100 100 100
100 99 98 98 100 100 100 100 100 98 97 98 96 95 99 93 89 86 85 86 90 91 93 95 96 99 99
100 100 99 100 100 98 95 92 89 88 90 91 90 90 94 93 87 86 88 85 88 86 86 88 83 85 89
100 100 98 99 100 99 98 94 93 95 94 94 94 91 92 92 94 96 96 97 97 95 95 96 99 88 89

GFSFLT2_500_rhum_099.txt.gz
RH
14 10 9 9 8 7 8 13 19 25 29 37 47 53 63 96 81 89 89 100 95 99 91 63 23 20 16
10 9 8 7 9 13 19 23 27 33 36 50 63 68 86 100 93 100 100 100 99 99 84 22 20 18 18
10 10 10 14 20 21 21 24 29 34 38 54 69 74 94 100 95 99 100 100 100 100 41 22 20 22 23
14 18 23 23 20 20 24 26 32 42 54 70 80 85 91 100 100 100 100 100 100 93 38 32 26 26 29
16 24 26 25 21 25 31 37 55 60 62 68 84 86 100 100 100 100 100 100 100 93 55 44 31 32 35
27 29 30 25 25 37 43 54 63 64 66 73 82 79 81 93 100 100 100 100 99 95 98 60 37 37 42
38 35 34 25 38 48 52 62 69 69 73 81 86 78 94 96 100 100 100 99 100 100 84 58 55 51 54
38 42 37 29 48 53 53 56 64 69 76 83 85 84 67 92 100 100 100 100 100 99 96 98 98 94 81
48 44 33 33 52 52 58 65 64 69 75 82 83 78 82 90 91 100 100 100 100 100 100 100 99 97 88
48 39 36 42 55 58 58 59 66 66 69 76 78 78 80 89 97 100 100 100 100 100 100 100 100 100 99
42 48 56 70 71 74 66 61 66 74 74 74 78 82 86 87 86 95 100 100 99 99 99 99 100 100 100
52 67 81 88 85 84 76 75 72 75 77 79 89 91 86 88 94 100 100 98 93 88 87 97 100 100 100
68 81 84 85 94 90 88 84 80 80 78 78 82 88 94 95 94 96 98 99 100 100 89 86 90 97 100
73 83 82 77 100 95 90 85 89 89 86 89 90 90 90 89 91 94 92 87 85 91 90 85 88 92 96
77 88 82 87 100 99 97 93 93 94 91 88 88 85 83 83 86 91 88 82 83 82 85 91 95 95 95
78 92 95 100 100 100 100 98 97 94 91 89 89 88 93 90 90 91 90 88 85 87 86 86 85 84 82
95 99 100 97 100 100 100 100 96 93 94 92 79 79 92 94 90 83 89 89 94 95 95 95 93 86 88

GFSFLT2_500_rhum_102.txt.gz
RH
15 22 16 11 10 8 8 9 10 10 12 15 20 24 28 36 52 64 72 96 89 83 90 97 100 99 90
12 12 12 10 10 11 11 11 13 17 16 19 23 28 41 54 61 69 79 88 99 100 100 100 100 96 78
13 12 12 11 11 12 12 15 21 19 17 25 31 40 54 60 70 79 75 96 96 100 96 99 100 88 38
14 14 14 14 14 12 13 16 20 17 24 34 48 49 48 58 76 80 85 98 100 100 99 100 98 65 28
18 16 15 15 12 13 19 21 21 24 36 44 51 56 55 70 78 69 83 89 99 100 100 100 54 46 45
21 17 16 13 14 20 23 30 22 34 40 46 60 65 65 78 77 80 81 81 96 100 100 100 97 84 40
21 18 16 16 21 21 26 29 27 41 43 49 59 63 71 78 82 88 73 71 96 100 100 100 89 94 58
20 19 21 22 22 26 33 24 28 48 49 55 58 64 72 76 76 80 76 85 100 100 100 100 100 92 85
30 33 30 28 33 37 30 25 33 52 54 58 63 59 66 79 79 81 89 92 98 100 100 100 100 96 76
38 44 41 31 31 30 29 30 52 62 62 60 64 68 72 74 76 86 92 95 97 100 100 99 100 99 100
48 43 38 27 31 38 47 63 76 80 70 64 73 78 81 82 86 89 91 96 92 93 99 100 100 100 100
53 37 32 33 46 60 69 81 89 89 80 75 81 86 84 86 84 82 83 88 96 97 93 91 90 95 100
45 41 43 49 61 74 81 80 92 99 94 90 90 90 93 89 84 84 85 87 91 94 95 96 96 88 85
48 51 53 59 69 77 85 79 97 100 99 95 92 94 94 94 92 89 88 87 87 84 85 84 86 93 89
52 53 56 66 74 80 84 85 99 100 100 99 98 96 90 87 89 86 85 85 85 86 86 86 89 87 81
53 54 59 68 77 79 91 100 100 100 100 100 98 93 90 88 89 83 85 86 85 88 87 85 81 82 82
57 57 61 70 81 88 95 90 89 95 100 100 100 97 93 91 87 74 84 91 90 84 87 86 86 83 83

GFSFLT2_500_rhum_105.txt.gz
RH
15 13 12 11 10 11 12 11 10 11 11 9 8 10 17 16 20 23 34 42 63 60 66 89 89 99 94
16 15 13 12 11 12 12 13 14 13 11 9 12 17 18 21 29 33 39 48 64 71 75 93 94 100 100
20 16 14 12 13 14 14 15 15 12 10 13 18 18 20 31 42 44 46 53 58 68 72 90 99 100 100
22 17 13 14 15 17 17 16 14 12 14 17 21 21 28 43 49 51 47 53 65 70 77 96 99 100 100
21 16 14 16 19 20 19 16 13 16 16 21 25 24 35 44 48 53 61 69 70 71 76 93 92 98 100
19 16 18 20 23 22 18 15 16 20 18 20 24 28 42 50 48 58 61 69 83 71 74 72 86 100 100
23 23 23 25 26 23 20 18 20 20 17 26 22 37 44 56 55 58 63 63 64 66 76 83 100 94 57
30 30 30 34 32 30 28 30 26 22 24 28 24 39 49 53 51 53 65 61 68 65 64 91 100 100 81
39 39 40 37 33 35 34 27 31 27 23 32 35 51 57 53 58 56 60 72 78 84 92 99 92 100 94
46 51 54 42 50 48 49 33 30 26 37 49 66 68 62 57 63 65 66 75 85 94 95 96 100 100 100
54 60 56 66 60 55 49 34 36 44 59 84 84 79 66 65 72 78 83 96 100 100 100 98 98 99 100
69 75 68 78 75 70 47 40 50 68 80 85 92 86 75 81 85 94 86 84 95 100 100 99 100 97 96
96 92 96 94 90 70 50 50 65 76 88 85 99 98 92 91 90 100 97 91 92 89 94 97 95 90 88
100 100 100 100 90 59 52 60 71 83 88 88 100 100 100 100 97 91 91 90 88 89 88 89 91 91 89
100 100 100 99 75 60 58 62 74 85 90 89 100 100 100 100 100 98 96 90 88 85 83 85 88 88 89
99 100 100 95 70 57 59 66 80 86 95 100 100 100 100 100 100 100 99 93 88 85 82 84 90 87 86
96 98 98 96 62 57 59 68 83 94 95 87 88 92 100 100 100 95 88 91 82 79 80 80 84 85 86

GFSFLT2_500_rhum_108.txt.gz
RH
44 43 43 37 30 23 20 16 12 11 11 11 13 14 14 8 7 11 14 19 27 37 36 39 54 60 83
36 30 38 24 24 29 20 16 13 12 13 14 16 18 13 8 11 18 18 26 35 32 42 49 60 69 92
43 40 32 25 23 22 18 15 14 14 15 18 19 17 8 10 18 21 24 37 35 32 40 61 64 63 89
38 38 32 26 24 23 18 14 15 17 19 20 19 14 10 11 21 23 31 36 39 45 53 64 67 73 92
35 30 31 28 26 22 18 16 19 20 21 19 17 13 11 15 20 23 34 36 46 51 58 69 69 72 88
66 43 35 33 28 22 19 19 22 23 24 21 18 15 16 18 22 24 38 40 52 53 61 72 68 66 66
99 100 50 33 29 27 25 23 26 28 25 22 23 21 19 21 22 29 42 42 48 52 52 54 63 71 72
70 91 47 38 37 34 32 31 32 34 27 28 28 27 21 21 22 41 50 47 48 53 53 66 64 78 85
65 60 54 52 48 44 40 38 43 43 43 44 42 25 22 24 30 53 56 56 53 50 62 75 72 80 95
63 65 65 68 67 56 47 49 54 53 59 58 40 30 28 36 52 68 63 62 60 56 71 90 87 83 95
70 70 68 72 69 66 57 68 71 76 70 59 43 36 47 61 76 77 69 70 70 69 81 100 100 97 87
98 95 88 84 77 70 72 89 91 98 80 56 49 52 66 75 91 85 78 79 85 90 95 100 100 100 97
100 100 100 94 96 97 99 100 99 100 76 59 59 70 82 83 100 89 86 88 92 92 100 100 100 100 100
100 100 92 100 100 100 100 100 100 99 68 63 68 79 84 86 97 93 92 95 96 98 100 100 100 95 89
100 100 100 100 100 100 100 100 100 94 66 65 71 80 87 88 98 100 95 96 98 99 100 100 97 92 92
100 100 100 100 100 100 100 100 100 87 66 65 73 82 91 96 97 99 100 99 98 95 95 91 85 82 81
100 100 100 100 100 100 99 99 97 88 64 64 78 81 93 100 96 87 100 100 98 92 88 86 81 77 75

GFSFLT2_500_rhum_111.txt.gz
RH
95 92 89 86 73 60 45 66 47 36 23 22 18 14 12 13 16 19 17 11 7 10 12 15 22 23 28
84 72 77 82 77 57 39 32 34 26 22 22 16 13 14 15 18 20 16 9 9 12 14 19 25 31 40
98 92 89 82 77 66 36 24 32 28 24 21 16 14 15 17 20 20 15 9 10 17 17 24 30 40 53
98 99 98 97 97 97 82 48 45 48 28 28 34 22 16 20 20 18 13 10 12 17 19 28 33 46 60
98 98 99 99 99 98 98 96 54 72 37 68 30 20 19 22 21 18 14 12 14 17 21 32 36 45 65
90 99 100 100 99 98 96 97 90 62 92 89 41 22 25 26 22 18 16 15 16 18 28 33 36 46 60
35 53 64 95 100 100 99 100 99 79 77 51 44 33 30 30 26 23 20 17 17 20 33 34 35 40 50
42 59 61 78 91 97 97 91 96 98 73 63 58 40 44 35 34 33 22 19 20 24 37 39 37 37 48
59 56 57 54 55 56 62 67 80 84 83 64 79 71 46 42 41 34 23 24 24 39 42 46 44 47 59
86 94 78 74 63 62 61 63 60 66 84 96 84 69 59 54 54 32 29 30 42 54 48 52 53 64 73
85 99 100 98 93 78 65 56 69 77 80 82 83 73 78 73 50 38 38 45 63 64 60 59 64 76 87
79 87 100 100 98 93 85 73 77 78 89 95 89 90 97 92 51 50 59 63 74 73 76 76 79 89 94
71 99 100 100 91 91 96 100 100 97 98 99 97 100 100 85 62 71 72 73 84 85 94 96 94 95 97
96 100 100 100 95 98 98 100 100 100 100 100 100 100 98 74 73 78 79 82 93 95 100 98 93 98 100
100 98 97 90 96 100 100 100 100 100 100 100 100 100 94 70 77 83 86 90 100 100 100 100 98 100 100
94 99 100 100 99 99 100 100 100 100 100 100 100 99 92 72 80 89 93 94 100 100 100 100 100 99 100
100 100 97 95 100 100 100 100 100 100 100 100 100 95 88 74 84 91 91 98 95 100 100 100 100 99 96

GFSFLT2_500_rhum_117.txt.gz
RH
48 38 26 28 47 74 81 97 98 97 98 98 92 84 95 100 95 92 87 61 43 29 18 24 36 55 22
5 6 12 21 38 41 44 44 64 94 98 99 98 100 98 100 95 95 96 78 34 41 59 66 79 60 22
7 7 7 7 7 7 10 26 58 70 90 98 98 98 97 97 100 97 99 92 75 57 71 82 58 30 25
12 12 12 12 10 9 8 9 13 17 52 76 96 98 97 95 96 96 96 96 88 78 87 81 27 25 36
14 14 13 13 12 11 10 10 10 14 61 96 100 84 90 88 92 98 83 90 87 87 84 60 48 37 39
11 9 7 5 6 8 12 19 13 13 76 100 99 80 98 97 98 95 92 84 75 59 69 74 48 47 35
8 5 3 4 11 17 20 100 53 31 56 71 99 96 100 92 93 99 89 85 71 65 68 64 48 55 25
5 2 2 4 12 32 54 64 88 77 99 100 100 100 99 89 99 96 69 58 50 67 62 59 64 36 24
2 2 2 4 35 100 61 47 76 92 68 98 95 86 95 99 92 69 55 49 48 66 67 78 58 36 23
2 4 5 10 14 34 98 100 100 100 100 100 100 100 100 95 75 63 63 67 72 80 89 80 65 32 26
4 7 12 27 35 59 63 76 80 87 52 98 74 49 71 90 76 72 70 81 77 80 82 73 50 40 32
9 14 24 54 60 56 99 100 100 100 73 35 51 77 100 100 96 86 87 90 86 84 87 75 73 50 53
17 38 66 70 67 52 67 74 77 100 100 100 100 100 100 100 100 100 93 94 88 95 98 97 79 63 70
64 79 69 64 68 77 100 100 97 100 100 100 100 99 99 100 100 100 95 99 96 95 100 99 85 72 82
88 79 69 62 83 75 100 95 90 100 100 100 100 98 100 100 99 100 100 100 99 100 100 97 92 85 94
87 83 65 56 83 66 60 100 100 99 100 98 100 100 100 85 100 100 100 100 100 100 100 100 95 96 100
82 73 65 56 94 95 100 99 58 57 85 87 100 98 100 100 100 100 100 100 100 100 100 100 98 100 100

GFSFLT2_500_rhum_120.txt.gz
RH
5 5 5 5 6 6 6 6 6 6 6 5 5 9 26 51 54 72 71 98 97 98 99 96 80 51 33
9 10 10 10 11 10 11 11 11 11 11 10 9 8 6 6 17 70 68 87 100 97 97 96 79 67 47
10 9 10 11 11 11 12 12 11 11 11 11 11 11 10 9 11 42 97 74 91 91 87 92 84 76 72
14 14 15 14 14 13 12 11 10 8 8 7 7 8 10 17 26 62 81 89 92 78 68 92 97 93 90
26 25 23 22 19 16 14 11 8 7 5 5 28 12 29 91 90 70 98 97 65 66 78 73 86 70 49
30 29 28 26 22 17 13 10 7 4 5 18 13 32 100 82 98 96 100 99 96 99 88 86 71 43 44
26 28 29 26 20 14 9 6 4 3 3 11 51 41 97 99 90 96 98 100 100 96 88 62 58 58 60
32 29 29 23 14 9 5 3 3 13 87 48 55 44 73 91 90 59 95 98 100 92 85 66 64 67 63
32 29 19 11 6 4 3 2 2 4 13 80 100 93 100 77 75 93 80 80 100 92 64 58 61 62 62
29 17 8 4 4 2 3 23 90 80 92 100 96 83 86 100 95 77 93 96 92 81 58 58 68 68 76
20 8 4 3 2 4 7 72 51 74 45 64 90 100 100 100 100 100 96 83 86 67 71 74 77 85 88
7 5 3 2 4 8 15 57 48 100 79 100 75 100 100 100 100 100 96 100 92 89 85 82 88 92 89
5 3 2 6 12 19 100 70 99 89 100 100 100 100 91 92 99 100 84 100 99 95 100 91 97 100 85
3 3 7 13 28 52 95 67 73 100 97 100 59 58 98 98 77 77 100 100 100 100 100 100 100 100 94
3 8 16 40 59 71 99 100 100 90 100 100 97 100 100 99 90 100 100 97 95 99 100 100 100 100 100
6 17 50 72 79 77 69 100 100 92 100 92 99 100 100 100 100 100 100 89 95 100 100 100 100 100 100
14 42 73 84 88 75 63 100 100 99 100 91 100 100 100 100 100 100 100 94 100 100 100 100 100 100 100

GFSFLT2_500_rhum_123.txt.gz
RH
6 8 9 10 10 9 9 9 9 10 10 10 10 9 9 9 8 8 8 8 9 9 11 28 28 54 75
9 11 12 14 15 14 16 18 19 18 17 15 14 13 13 11 10 9 8 8 7 8 12 16 32 46 83
15 15 16 18 20 23 25 25 26 28 27 26 23 21 16 11 9 8 8 7 8 10 27 30 23 72 48
20 22 25 26 27 24 23 25 26 28 29 29 25 19 16 9 7 7 14 16 16 19 55 71 79 40 56
32 33 34 34 35 35 35 35 34 34 33 32 24 21 14 8 6 7 83 93 81 77 86 99 98 99 71
38 36 36 37 36 33 33 34 32 33 30 26 16 10 6 4 4 5 16 68 88 87 36 100 100 100 94
39 39 37 38 36 37 37 35 34 31 26 20 8 4 4 3 7 100 55 100 100 100 99 97 90 100 94
42 38 35 34 33 34 33 32 29 24 9 7 5 4 2 5 8 66 94 100 96 54 50 95 97 100 95
39 37 35 35 35 33 33 30 21 9 5 4 3 2 3 78 100 100 90 80 55 99 97 91 90 100 99
41 38 35 35 35 33 27 13 6 6 3 3 4 26 70 27 99 84 69 100 96 100 100 100 100 100 100
34 35 35 35 32 20 8 7 5 2 3 6 41 61 60 94 58 100 100 100 100 93 99 100 100 92 100
34 36 36 33 19 8 6 4 3 4 7 40 71 76 72 100 100 100 93 87 87 100 71 100 99 96 100
40 40 36 19 7 5 4 2 6 35 48 62 78 100 100 77 95 99 100 100 100 100 100 100 92 100 100
46 38 20 6 5 4 3 7 25 99 61 98 100 100 87 100 76 54 100 100 100 100 100 89 99 100 100
43 23 8 5 4 4 10 19 25 54 58 84 80 92 100 100 90 90 100 96 100 93 99 98 100 98 99
26 10 5 4 3 9 24 39 56 92 89 82 91 100 100 99 84 91 94 99 100 98 100 100 100 100 100
11 6 4 3 8 25 51 65 66 79 100 100 75 100 100 100 100 100 100 72 77 100 100 100 100 95 100

GFSFLT2_500_rhum_126.txt.gz
RH
52 34 12 8 9 11 13 13 11 12 14 16 16 16 19 20 21 21 21 21 18 16 14 12 10 9 8
10 14 16 17 16 17 17 19 23 26 26 26 25 25 26 27 29 29 28 28 25 19 14 11 9 8 8
14 15 17 19 22 27 32 35 36 33 32 32 34 37 35 35 37 36 35 33 27 18 14 10 9 8 9
17 21 25 27 29 36 35 32 29 30 31 32 36 37 36 38 39 38 35 29 20 15 10 9 8 8 15
28 28 24 28 39 35 35 32 31 31 33 37 37 38 38 39 37 33 26 17 12 10 8 7 9 42 70
28 26 29 40 37 34 31 32 28 32 32 32 39 38 37 33 28 22 16 7 5 4 4 5 81 78 83
29 37 36 41 40 40 36 33 28 29 29 25 30 28 30 26 18 10 6 5 4 3 13 4 9 20 75
46 45 41 43 43 35 29 28 28 32 32 26 27 26 24 19 11 8 5 3 4 4 5 49 98 93 74
53 50 45 41 37 33 31 29 28 31 33 29 28 24 16 10 6 4 2 8 36 68 100 100 100 100 98
56 50 46 42 38 36 32 28 30 34 36 30 20 12 10 5 3 4 12 93 100 89 95 100 82 92 100
56 56 49 40 35 34 35 36 38 38 32 22 12 8 4 2 13 46 62 97 100 100 100 100 96 88 100
60 56 48 40 35 35 44 46 42 35 19 10 7 4 4 40 37 52 98 97 89 100 97 76 86 98 85
63 57 49 38 32 42 50 47 35 17 9 6 3 6 21 73 97 92 100 100 100 94 100 97 100 87 100
51 39 33 37 53 60 52 36 14 7 6 4 8 17 48 79 91 95 88 100 100 86 88 94 95 100 90
40 45 57 71 72 59 30 9 5 5 5 9 22 28 69 74 97 82 99 99 100 100 87 95 88 100 100
52 67 80 76 61 26 7 4 5 6 13 27 41 67 68 90 92 85 100 100 100 100 100 100 100 100 100
77 87 86 77 28 7 4 5 11 26 36 50 75 60 75 93 100 100 84 76 71 100 100 100 100 100 97

GFSFLT2_500_rhum_129.txt.gz
RH
96 97 75 53 40 24 13 13 14 16 18 20 24 28 31 31 29 28 28 28 27 27 27 28 29 28 26
88 64 56 42 17 11 17 20 22 23 26 32 36 37 33 29 24 24 23 24 28 33 36 37 37 36 34
44 22 10 13 16 18 22 25 28 30 40 43 39 35 35 34 30 30 33 35 36 39 41 40 40 41 39
14 18 20 24 23 23 25 25 25 38 40 35 33 33 32 32 30 29 28 31 33 35 40 41 41 39 36
28 30 31 30 27 27 25 27 32 36 37 43 42 40 32 28 26 27 28 29 33 35 35 34 29 24 19
35 32 30 27 26 25 27 29 32 42 40 37 36 32 30 29 29 28 28 28 29 30 26 20 14 9 7
37 34 31 28 26 27 28 30 35 38 38 35 36 32 29 28 27 28 30 30 30 27 20 12 9 7 5
33 32 31 30 30 29 29 32 41 48 47 39 38 33 28 26 26 28 32 32 26 19 13 9 6 3 5
35 35 34 33 33 33 40 51 56 56 56 43 40 34 30 28 32 36 33 27 19 11 6 4 3 5 15
38 37 36 41 51 51 47 40 38 39 52 44 41 31 29 40 39 31 21 15 8 4 3 6 20 20 46
43 53 58 51 32 18 13 11 11 13 20 24 32 41 49 46 23 13 10 5 3 7 65 80 64 96 100
30 28 26 18 14 12 9 9 8 8 25 42 49 56 37 15 10 7 4 8 30 33 100 91 98 93 100
22 20 19 18 14 13 12 13 31 40 49 68 51 19 12 6 5 5 37 60 94 79 91 96 90 96 99
29 28 25 19 16 15 21 32 67 76 72 44 22 8 5 5 8 29 60 69 91 100 91 95 100 99 68
33 28 24 23 27 34 57 79 88 89 63 17 6 6 8 12 22 63 96 95 94 100 79 97 100 100 100
40 39 38 52 74 83 88 91 88 30 5 5 9 15 23 32 39 66 99 100 100 100 100 80 94 100 99
46 44 70 82 92 97 100 74 16 6 5 14 27 27 57 63 70 79 90 100 98 100 100 100 100 87 86